Regional Weather Roundup
Issued by NWS

Home | Current Version | Previous Version | Graphics & Text | Print | Product List | Glossary On
Versions: 1 2 3 4 5 6 7 8 9 10 11 12 13 14 15 16 17 18 19 20 21 22 23 24 25 26 27 28 29 30 31 32 33 34 35 36 37 38 39 40 41 42 43 44 45 46 47 48 49 50
000
ASUS43 KLMK 240502
RWRKY
KENTUCKY REGIONAL WEATHER ROUNDUP
NATIONAL WEATHER SERVICE LOUISVILLE KY
100 AM EDT TUE MAY 24 2016

NOTE "FAIR" INDICATES FEW OR NO CLOUDS BELOW 12,000 FEET
WITH NO SIGNIFICANT WEATHER AND/OR OBSTRUCTIONS TO VISIBILITY.

KYZ001>023-026-027-061>063-070>075-240600-
WESTERN AND SOUTH CENTRAL KENTUCKY

CITY           SKY/WX    TMP DP  RH WIND       PRES   REMARKS
PADUCAH        MOCLDY    69  54  58 S3        29.96F
HENDERSON      CLOUDY    66  48  52 SE6       29.98S
OWENSBORO      CLEAR     65  51  60 E5        30.00F
HOPKINSVILLE   CLOUDY    65  50  58 SE2       30.00R
BOWLING GREEN  CLEAR     58  51  78 CALM      30.02S
GLASGOW        NOT AVBL
$$

KYZ024-025-028>034-038-045-046-053-240600-
NORTH CENTRAL KENTUCKY

CITY           SKY/WX    TMP DP  RH WIND       PRES   REMARKS
LOUISVILLE/SDF CLEAR     65  50  58 SE6       30.03S
LOUISVILLE/LOU CLEAR     64  50  60 CALM      30.04S
FORT KNOX      CLEAR     57  50  78 E3        30.02S
$$

KYZ035>037-039>044-047>052-055>060-089>105-240600-
NORTHEAST KENTUCKY

CITY           SKY/WX    TMP DP  RH WIND       PRES   REMARKS
LEXINGTON      PTCLDY    58  51  78 E5        30.05S
COVINGTON      CLEAR     53  51  93 S5        30.04F
FRANKFORT      CLEAR     55  50  83 CALM      30.04S
$$

KYZ054-064>069-076>088-106>120-240600-
SOUTHEAST KENTUCKY

CITY           SKY/WX    TMP DP  RH WIND       PRES   REMARKS
JACKSON        CLEAR     61  48  62 SE3       30.07S
LONDON         CLEAR     54  50  86 CALM      30.06S
SOMERSET       NOT AVBL
MIDDLESBORO    NOT AVBL
MONTICELLO     CLEAR     51  49  92 W9        30.07S
$$




USA.gov is the U.S. government's official web portal to all federal, state and local government web resources and services.